TimePDT,TemperatureF,Dew PointF,Humidity,Sea Level PressureIn,VisibilityMPH,Wind Direction,Wind SpeedMPH,Gust SpeedMPH,PrecipitationIn,Events,Conditions,WindDirDegrees,DateUTC
12:56 AM,48.9,46.9,93,30.33,5.0,NNW,4.6,-,N/A,,Clear,330,2013-05-19 07:56:00
1:56 AM,48.0,48.0,100,30.33,4.0,Calm,Calm,-,N/A,,Clear,0,2013-05-19 08:56:00
2:56 AM,48.0,46.0,93,30.34,10.0,North,5.8,-,N/A,,Clear,360,2013-05-19 09:56:00
3:56 AM,48.0,46.0,93,30.34,10.0,North,5.8,-,N/A,,Clear,360,2013-05-19 10:56:00
4:56 AM,46.9,45.0,93,30.34,10.0,North,5.8,-,N/A,,Clear,10,2013-05-19 11:56:00
5:56 AM,48.9,46.0,90,30.35,10.0,North,6.9,-,N/A,,Clear,360,2013-05-19 12:56:00
6:56 AM,51.1,48.0,89,30.34,10.0,NNW,13.8,-,N/A,,Clear,340,2013-05-19 13:56:00
7:56 AM,53.1,50.0,89,30.34,10.0,NNW,12.7,21.9,N/A,,Clear,340,2013-05-19 14:56:00
8:56 AM,54.0,51.1,90,30.33,8.0,NNW,18.4,25.3,N/A,,Clear,330,2013-05-19 15:56:00
9:56 AM,55.0,50.0,83,30.32,9.0,NNW,20.7,29.9,N/A,,Clear,330,2013-05-19 16:56:00
10:56 AM,55.9,50.0,80,30.32,9.0,NNW,23.0,29.9,N/A,,Clear,330,2013-05-19 17:56:00
11:56 AM,57.0,48.9,74,30.30,9.0,NW,23.0,36.8,N/A,,Clear,320,2013-05-19 18:56:00
12:56 PM,57.0,48.0,72,30.29,9.0,NW,25.3,36.8,N/A,,Clear,320,2013-05-19 19:56:00
1:56 PM,57.9,48.0,70,30.27,8.0,NW,24.2,35.7,N/A,,Clear,320,2013-05-19 20:56:00
2:56 PM,57.9,48.0,70,30.25,8.0,NW,26.5,35.7,N/A,,Clear,320,2013-05-19 21:56:00
3:56 PM,57.0,48.0,72,30.23,7.0,NW,25.3,34.5,N/A,,Clear,320,2013-05-19 22:56:00
4:56 PM,55.9,48.0,75,30.21,7.0,NW,25.3,36.8,N/A,,Clear,320,2013-05-19 23:56:00
5:56 PM,55.0,46.9,74,30.19,7.0,NNW,21.9,36.8,N/A,,Clear,330,2013-05-20 00:56:00
6:56 PM,54.0,46.9,77,30.17,6.0,NNW,20.7,31.1,N/A,,Haze,330,2013-05-20 01:56:00
7:56 PM,53.1,46.9,80,30.18,6.0,NNE,10.4,16.1,N/A,,Haze,20,2013-05-20 02:56:00
8:56 PM,51.1,46.9,86,30.17,6.0,NNW,13.8,24.2,N/A,,Clear,340,2013-05-20 03:56:00
9:56 PM,51.1,46.9,86,30.19,7.0,North,13.8,21.9,N/A,,Clear,360,2013-05-20 04:56:00
10:56 PM,50.0,46.9,89,30.18,8.0,NNW,12.7,19.6,N/A,,Clear,340,2013-05-20 05:56:00
11:56 PM,50.0,46.0,86,30.20,8.0,NNE,12.7,21.9,N/A,,Clear,20,2013-05-20 06:56:00